Project,Study,Ord_Occ,Event_Num,Cast_ID,Date_Time_UTC,Date_Time_PST,Lat_Dec,Lon_Dec,Sta_ID,Line,Sta,Depth,Pressure,PrQ,Temp1,Temp1Q,Temp2,Temp2Q,TempAve,Salt1,Salt1Q,Salt1_Corr,Salt2,Salt2Q,Salt2_Corr,SaltAve_Corr,Ox1,Ox1Q,Ox1_CruiseCorr,Ox1_StaCorr,Ox2,Ox2Q,Ox2_CruiseCorr,Ox2_StaCorr,OxAve_StaCorr,Ox1uM,Ox1uM_CruiseCorr,Ox1uM_StaCorr,Ox2uM,Ox2uM_CruiseCorr,Ox2uM_StaCorr,OxAveuM_StaCorr,FluorV,FluorQ,EstChl_CruiseCorr,EstChl_StaCorr,ISUSV,ISUSQ,EstNO3_CruiseCorr,EstNO3_StaCorr,SigThetaTS1,SigThetaTS1Q,SigThetaTS2,SigThetaTS2Q,BAT,XMiss,TransQ,pH,pHQ,SPAR,SPARQ,PAR,PARQ,PoT1,PoT2,DynHt,SVA,OxSat1,OxSat2,BTL_Depth,BTL_Temp,SaltB,OxB,OxBuM,Chl-a,Phaeo,NO3,NO2,NH4,PO4,SIL
CalCOFI,2007SR,066,68,2007_066u,26-Jul-2020 08:22:21,26-Jul-2020 00:22:21,34.88934,-121.19896,076.7 055.0,076.7,055.0,516.000,520.402,,6.3022,,6.3026,,6.3024,34.2915,,34.2917,34.2930,,34.2946,34.2932,0.3491,,0.3471,0.3670,2.0504,,0.9537,0.6432,0.5051,15.179,15.3573,15.9950,89.168,,29.0986,22.5468,0.0320,,,,-99.0,,-99.0,-99.0,26.9600,,26.9612,,0.6641,84.7026,,7.561,,1.9043E+00,,1.0000E-12,,6.2557,6.2561,0.8503,,5.064,29.748,516,6.302,34.2934,0.355,15.49,,,39.26,0.060,0.00,3.20,78.33
CalCOFI,2007SR,066,68,2007_066u,26-Jul-2020 08:22:56,26-Jul-2020 00:22:56,34.88934,-121.19896,076.7 055.0,076.7,055.0,515.000,519.392,,6.3021,,6.3025,,6.3023,34.2914,,34.2916,34.2929,,34.2945,34.2931,0.3497,,0.3477,0.3676,2.0279,,0.9000,0.5862,0.4769,15.206,15.3854,16.0231,88.188,,26.6165,21.3198,0.0340,,,,-99.0,,-99.0,-99.0,26.9600,,26.9612,,0.6613,84.7611,,7.563,,1.9043E+00,,1.0000E-12,,6.2556,6.2561,0.8515,,5.073,29.421,,,,,,,,,,,,
CalCOFI,2007SR,066,68,2007_066u,26-Jul-2020 08:23:06,26-Jul-2020 00:23:06,34.88934,-121.19896,076.7 055.0,076.7,055.0,514.000,518.382,,6.3038,,6.3038,,6.3038,34.2911,,34.2913,34.2927,,34.2943,34.2928,0.3521,,0.3502,0.3701,2.0229,,0.8881,0.5736,0.4719,15.313,15.4971,16.1344,87.970,,26.0644,21.0994,0.0335,,,,-99.0,,-99.0,-99.0,26.9595,,26.9608,,0.6630,84.7259,,7.564,,1.9043E+00,,1.0000E-12,,6.2574,6.2575,0.8519,,5.109,29.350,,,,,,,,,,,,
CalCOFI,2007SR,066,68,2007_066u,26-Jul-2020 08:23:06,26-Jul-2020 00:23:06,34.88934,-121.19896,076.7 055.0,076.7,055.0,513.000,517.372,,6.3115,,6.3104,,6.3110,34.2912,,34.2914,34.2929,,34.2945,34.2930,0.3594,,0.3578,0.3777,2.0218,,0.8854,0.5708,0.4743,15.629,15.8270,16.4632,87.923,,25.9453,21.2043,0.0335,,,,-99.0,,-99.0,-99.0,26.9586,,26.9601,,0.6616,84.7551,,7.565,,1.9043E+00,,1.0000E-12,,6.2652,6.2641,0.8518,,5.215,29.338,,,,,,,,,,,,
CalCOFI,2007SR,066,68,2007_066u,26-Jul-2020 08:23:06,26-Jul-2020 00:23:06,34.88934,-121.19896,076.7 055.0,076.7,055.0,512.000,516.362,,6.3276,,6.3285,,6.3281,34.2897,,34.2899,34.2912,,34.2928,34.2914,0.3605,,0.3590,0.3788,2.0178,,0.8759,0.5607,0.4698,15.677,15.8771,16.5131,87.748,,25.5021,21.0076,0.0332,,,,-99.0,,-99.0,-99.0,26.9553,,26.9564,,0.6627,84.7324,,7.564,,1.9043E+00,,1.0000E-12,,6.2813,6.2822,0.8518,,5.233,29.292,,,,,,,,,,,,
CalCOFI,2007SR,066,68,2007_066u,26-Jul-2020 08:23:07,26-Jul-2020 00:23:07,34.88934,-121.19896,076.7 055.0,076.7,055.0,511.000,515.352,,6.3359,,6.3359,,6.3359,34.2890,,34.2892,34.2905,,34.2921,34.2907,0.3598,,0.3583,0.3781,2.0216,,0.8850,0.5703,0.4742,15.647,15.8458,16.4819,87.915,,25.9251,21.2035,0.0334,,,,-99.0,,-99.0,-99.0,26.9537,,26.9549,,0.6592,84.8067,,7.564,,1.9043E+00,,1.0000E-12,,6.2897,6.2896,0.8518,,5.224,29.353,,,,,,,,,,,,
CalCOFI,2007SR,066,68,2007_066u,26-Jul-2020 08:23:08,26-Jul-2020 00:23:08,34.88934,-121.19896,076.7 055.0,076.7,055.0,510.000,514.343,,6.3390,,6.3391,,6.3391,34.2887,,34.2889,34.2902,,34.2918,34.2904,0.3562,,0.3545,0.3744,2.0150,,0.8692,0.5536,0.4640,15.489,15.6809,16.3175,87.630,,25.2032,20.7604,0.0333,,,,-99.0,,-99.0,-99.0,26.9531,,26.9542,,0.6583,84.8248,,7.565,,1.9043E+00,,1.0000E-12,,6.2929,6.2930,0.8518,,5.172,29.259,,,,,,,,,,,,
CalCOFI,2007SR,066,68,2007_066u,26-Jul-2020 08:23:09,26-Jul-2020 00:23:09,34.88934,-121.19896,076.7 055.0,076.7,055.0,509.000,513.333,,6.3403,,6.3403,,6.3403,34.2885,,34.2887,34.2900,,34.2916,34.2902,0.3565,,0.3548,0.3747,2.0128,,0.8640,0.5480,0.4614,15.503,15.6955,16.3321,87.532,,24.9550,20.6436,0.0334,,,,-99.0,,-99.0,-99.0,26.9527,,26.9539,,0.6587,84.8167,,7.565,,1.9043E+00,,1.0000E-12,,6.2942,6.2942,0.8518,,5.177,29.228,,,,,,,,,,,,
CalCOFI,2007SR,066,68,2007_066u,26-Jul-2020 08:23:10,26-Jul-2020 00:23:10,34.88934,-121.19896,076.7 055.0,076.7,055.0,508.000,512.323,,6.3407,,6.3406,,6.3407,34.2885,,34.2887,34.2900,,34.2916,34.2902,0.3566,,0.3549,0.3748,2.0153,,0.8699,0.5543,0.4646,15.506,15.6986,16.3352,87.641,,25.2311,20.7832,0.0332,,,,-99.0,,-99.0,-99.0,26.9527,,26.9538,,0.6581,84.8297,,7.565,,1.9043E+00,,1.0000E-12,,6.2947,6.2946,0.8518,,5.177,29.264,,,,,,,,,,,,
CalCOFI,2007SR,066,68,2007_066u,26-Jul-2020 08:23:12,26-Jul-2020 00:23:12,34.88934,-121.19896,076.7 055.0,076.7,055.0,507.000,511.313,,6.3412,,6.3410,,6.3411,34.2885,,34.2887,34.2900,,34.2916,34.2902,0.3643,,0.3630,0.3828,2.0155,,0.8704,0.5548,0.4688,15.841,16.0483,16.6838,87.649,,25.2513,20.9676,0.0334,,,,-99.0,,-99.0,-99.0,26.9526,,26.9538,,0.6586,84.8191,,7.565,,1.9043E+00,,1.0000E-12,,6.2953,6.2952,0.8518,,5.289,29.267,,,,,,,,,,,,
CalCOFI,2007SR,066,68,2007_066u,26-Jul-2020 08:23:13,26-Jul-2020 00:23:13,34.88934,-121.19896,076.7 055.0,076.7,055.0,506.000,510.304,,6.3418,,6.3417,,6.3418,34.2880,,34.2882,34.2898,,34.2914,34.2898,0.3647,,0.3634,0.3832,2.0152,,0.8697,0.5541,0.4687,15.858,16.0661,16.7015,87.637,,25.2210,20.9613,0.0332,,,,-99.0,,-99.0,-99.0,26.9521,,26.9535,,0.6590,84.8120,,7.566,,1.9043E+00,,1.0000E-12,,6.2960,6.2959,0.8518,,5.295,29.263,,,,,,,,,,,,
CalCOFI,2007SR,066,68,2007_066u,26-Jul-2020 08:23:14,26-Jul-2020 00:23:14,34.88934,-121.19896,076.7 055.0,076.7,055.0,505.000,509.294,,6.3549,,6.3546,,6.3548,34.2887,,34.2889,34.2905,,34.2921,34.2905,0.3700,,0.3689,0.3887,2.0142,,0.8673,0.5516,0.4702,16.091,16.3093,16.9439,87.594,,25.1121,21.0280,0.0322,,,,-99.0,,-99.0,-99.0,26.9510,,26.9524,,0.6580,84.8309,,7.566,,1.9043E+00,,1.0000E-12,,6.3092,6.3089,0.8518,,5.375,29.258,,,,,,,,,,,,
CalCOFI,2007SR,066,68,2007_066u,26-Jul-2020 08:23:15,26-Jul-2020 00:23:15,34.88934,-121.19896,076.7 055.0,076.7,055.0,504.000,508.284,,6.3837,,6.3834,,6.3836,34.2857,,34.2859,34.2875,,34.2891,34.2875,0.3713,,0.3703,0.3901,2.0077,,0.8518,0.5351,0.4626,16.149,16.3698,17.0042,87.312,,24.3978,20.7010,0.0329,,,,-99.0,,-99.0,-99.0,26.9448,,26.9463,,0.6564,84.8641,,7.566,,1.9043E+00,,1.0000E-12,,6.3379,6.3376,0.8518,,5.398,29.182,,,,,,,,,,,,
CalCOFI,2007SR,066,68,2007_066u,26-Jul-2020 08:23:16,26-Jul-2020 00:23:16,34.88934,-121.19896,076.7 055.0,076.7,055.0,503.000,507.274,,6.3844,,6.3850,,6.3847,34.2862,,34.2864,34.2876,,34.2892,34.2878,0.3733,,0.3724,0.3921,2.0051,,0.8456,0.5285,0.4603,16.234,16.4586,17.0927,87.197,,24.1066,20.5997,0.0341,,,,-99.0,,-99.0,-99.0,26.9451,,26.9461,,0.6588,84.8142,,7.566,,1.9043E+00,,1.0000E-12,,6.3387,6.3394,0.8518,,5.426,29.145,,,,,,,,,,,,
CalCOFI,2007SR,066,68,2007_066u,26-Jul-2020 08:23:17,26-Jul-2020 00:23:17,34.88934,-121.19896,076.7 055.0,076.7,055.0,502.000,506.265,,6.3952,,6.3934,,6.3943,34.2857,,34.2859,34.2872,,34.2888,34.2874,0.3754,,0.3746,0.3943,2.0067,,0.8494,0.5326,0.4635,16.324,16.5525,17.1863,87.269,,24.2889,20.7376,0.0342,,,,-99.0,,-99.0,-99.0,26.9433,,26.9447,,0.6578,84.8355,,7.566,,1.9043E+00,,1.0000E-12,,6.3496,6.3478,0.8518,,5.457,29.175,,,,,,,,,,,,
CalCOFI,2007SR,066,68,2007_066u,26-Jul-2020 08:23:18,26-Jul-2020 00:23:18,34.88934,-121.19896,076.7 055.0,076.7,055.0,501.000,505.255,,6.4104,,6.4123,,6.4114,34.2850,,34.2852,34.2866,,34.2882,34.2867,0.3748,,0.3739,0.3937,2.0037,,0.8422,0.5250,0.4594,16.299,16.5264,17.1603,87.137,,23.9546,20.5575,0.0338,,,,-99.0,,-99.0,-99.0,26.9407,,26.9417,,0.6582,84.8274,,7.566,,1.9043E+00,,1.0000E-12,,6.3648,6.3667,0.8518,,5.451,29.143,,,,,,,,,,,,
CalCOFI,2007SR,066,68,2007_066u,26-Jul-2020 08:23:19,26-Jul-2020 00:23:19,34.88934,-121.19896,076.7 055.0,076.7,055.0,500.000,504.245,,6.4252,,6.4254,,6.4253,34.2837,,34.2839,34.2853,,34.2869,34.2854,0.3781,,0.3774,0.3971,2.0034,,0.8415,0.5242,0.4607,16.444,16.6778,17.3112,87.124,,23.9217,20.6165,0.0338,,,,-99.0,,-99.0,-99.0,26.9378,,26.9390,,0.6583,84.8266,,7.566,,1.9043E+00,,1.0000E-12,,6.3796,6.3798,0.8518,,5.501,29.147,,,,,,,,,,,,
CalCOFI,2007SR,066,68,2007_066u,26-Jul-2020 08:23:20,26-Jul-2020 00:23:20,34.88934,-121.19896,076.7 055.0,076.7,055.0,499.000,503.236,,6.4273,,6.4276,,6.4275,34.2835,,34.2837,34.2849,,34.2865,34.2851,0.3775,,0.3767,0.3965,2.0039,,0.8427,0.5255,0.4610,16.418,16.6507,17.2841,87.147,,23.9799,20.6320,0.0326,,,,-99.0,,-99.0,-99.0,26.9373,,26.9384,,0.6594,84.8024,,7.566,,1.9043E+00,,1.0000E-12,,6.3818,6.3821,0.8518,,5.493,29.157,,,,,,,,,,,,
CalCOFI,2007SR,066,68,2007_066u,26-Jul-2020 08:23:21,26-Jul-2020 00:23:21,34.88934,-121.19896,076.7 055.0,076.7,055.0,498.000,502.226,,6.4340,,6.4330,,6.4335,34.2832,,34.2834,34.2849,,34.2865,34.2850,0.3804,,0.3798,0.3995,2.0034,,0.8415,0.5242,0.4619,16.541,16.7790,17.4121,87.124,,23.9217,20.6669,0.0338,,,,-99.0,,-99.0,-99.0,26.9362,,26.9377,,0.6586,84.8194,,7.566,,1.9043E+00,,1.0000E-12,,6.3886,6.3876,0.8518,,5.535,29.152,,,,,,,,,,,,
CalCOFI,2007SR,066,68,2007_066u,26-Jul-2020 08:23:22,26-Jul-2020 00:23:22,34.88934,-121.19896,076.7 055.0,076.7,055.0,497.000,501.216,,6.4462,,6.4457,,6.4460,34.2827,,34.2829,34.2839,,34.2855,34.2842,0.3764,,0.3756,0.3953,2.0025,,0.8394,0.5219,0.4586,16.369,16.5995,17.2331,87.084,,23.8204,20.5268,0.0331,,,,-99.0,,-99.0,-99.0,26.9342,,26.9353,,0.6612,84.7652,,7.566,,1.9043E+00,,1.0000E-12,,6.4009,6.4004,0.8518,,5.479,29.147,,,,,,,,,,,,
CalCOFI,2007SR,066,68,2007_066u,26-Jul-2020 08:23:23,26-Jul-2020 00:23:23,34.88934,-121.19896,076.7 055.0,076.7,055.0,496.000,500.206,,6.4579,,6.4580,,6.4580,34.2818,,34.2820,34.2835,,34.2851,34.2836,0.3768,,0.3760,0.3958,2.0016,,0.8372,0.5197,0.4578,16.387,16.6183,17.2519,87.045,,23.7216,20.4868,0.0336,,,,-99.0,,-99.0,-99.0,26.9320,,26.9333,,0.6625,84.7379,,7.566,,1.9043E+00,,1.0000E-12,,6.4126,6.4127,0.8518,,5.486,29.143,,,,,,,,,,,,
CalCOFI,2007SR,066,68,2007_066u,26-Jul-2020 08:23:24,26-Jul-2020 00:23:24,34.88934,-121.19896,076.7 055.0,076.7,055.0,495.000,499.197,,6.4670,,6.4678,,6.4674,34.2814,,34.2816,34.2828,,34.2844,34.2830,0.3784,,0.3777,0.3974,2.0008,,0.8353,0.5176,0.4575,16.455,16.6893,17.3226,87.012,,23.6380,20.4803,0.0335,,,,-99.0,,-99.0,-99.0,26.9305,,26.9314,,0.6614,84.7608,,7.566,,1.9043E+00,,1.0000E-12,,6.4218,6.4226,0.8518,,5.510,29.138,,,,,,,,,,,,
CalCOFI,2007SR,066,68,2007_066u,26-Jul-2020 08:23:25,26-Jul-2020 00:23:25,34.88934,-121.19896,076.7 055.0,076.7,055.0,494.000,498.187,,6.4821,,6.4829,,6.4825,34.2810,,34.2812,34.2823,,34.2839,34.2826,0.3810,,0.3804,0.4001,1.9998,,0.8329,0.5151,0.4576,16.569,16.8083,17.4412,86.967,,23.5240,20.4826,0.0334,,,,-99.0,,-99.0,-99.0,26.9281,,26.9290,,0.6640,84.7052,,7.566,,1.9043E+00,,1.0000E-12,,6.4369,6.4377,0.8518,,5.550,29.133,,,,,,,,,,,,
CalCOFI,2007SR,066,68,2007_066u,26-Jul-2020 08:23:26,26-Jul-2020 00:23:26,34.88934,-121.19896,076.7 055.0,076.7,055.0,493.000,497.177,,6.4975,,6.4981,,6.4978,34.2795,,34.2797,34.2811,,34.2827,34.2812,0.3795,,0.3788,0.3986,1.9987,,0.8303,0.5123,0.4555,16.506,16.7425,17.3757,86.922,,23.4101,20.3929,0.0331,,,,-99.0,,-99.0,-99.0,26.9250,,26.9261,,0.6649,84.6843,,7.565,,1.9043E+00,,1.0000E-12,,6.4523,6.4529,0.8518,,5.531,29.128,,,,,,,,,,,,
CalCOFI,2007SR,066,68,2007_066u,26-Jul-2020 08:23:27,26-Jul-2020 00:23:27,34.88934,-121.19896,076.7 055.0,076.7,055.0,492.000,496.168,,6.5085,,6.5086,,6.5086,34.2788,,34.2790,34.2803,,34.2819,34.2805,0.3817,,0.3811,0.4008,1.9979,,0.8284,0.5103,0.4556,16.599,16.8396,17.4724,86.888,,23.3239,20.3982,0.0333,,,,-99.0,,-99.0,-99.0,26.9229,,26.9241,,0.6666,84.6482,,7.565,,1.9043E+00,,1.0000E-12,,6.4634,6.4635,0.8518,,5.564,29.123,,,,,,,,,,,,
CalCOFI,2007SR,066,68,2007_066u,26-Jul-2020 08:23:28,26-Jul-2020 00:23:28,34.88934,-121.19896,076.7 055.0,076.7,055.0,491.000,495.158,,6.5157,,6.5154,,6.5156,34.2784,,34.2786,34.2796,,34.2812,34.2799,0.3795,,0.3788,0.3986,1.9973,,0.8270,0.5088,0.4537,16.504,16.7404,17.3736,86.861,,23.2556,20.3146,0.0332,,,,-99.0,,-99.0,-99.0,26.9216,,26.9227,,0.6678,84.6233,,7.565,,1.9043E+00,,1.0000E-12,,6.4707,6.4704,0.8518,,5.533,29.118,,,,,,,,,,,,
CalCOFI,2007SR,066,68,2007_066u,26-Jul-2020 08:23:29,26-Jul-2020 00:23:29,34.88934,-121.19896,076.7 055.0,076.7,055.0,490.000,494.148,,6.5228,,6.5223,,6.5226,34.2780,,34.2782,34.2795,,34.2811,34.2797,0.3868,,0.3865,0.4061,1.9967,,0.8255,0.5072,0.4567,16.822,17.0724,17.7045,86.835,,23.1897,20.4471,0.0338,,,,-99.0,,-99.0,-99.0,26.9204,,26.9216,,0.6672,84.6360,,7.565,,1.9043E+00,,1.0000E-12,,6.4779,6.4773,0.8518,,5.640,29.114,,,,,,,,,,,,
CalCOFI,2007SR,066,68,2007_066u,26-Jul-2020 08:23:30,26-Jul-2020 00:23:30,34.88934,-121.19896,076.7 055.0,076.7,055.0,489.000,493.139,,6.5328,,6.5324,,6.5326,34.2775,,34.2777,34.2790,,34.2806,34.2792,0.3853,,0.3849,0.4046,1.9959,,0.8236,0.5052,0.4549,16.758,17.0056,17.6379,86.801,,23.1036,20.3708,0.0332,,,,-99.0,,-99.0,-99.0,26.9187,,26.9199,,0.6678,84.6247,,7.565,,1.9043E+00,,1.0000E-12,,6.4879,6.4875,0.8518,,5.620,29.109,,,,,,,,,,,,
CalCOFI,2007SR,066,68,2007_066u,26-Jul-2020 08:23:31,26-Jul-2020 00:23:31,34.88934,-121.19896,076.7 055.0,076.7,055.0,488.000,492.129,,6.5391,,6.5391,,6.5391,34.2772,,34.2774,34.2784,,34.2800,34.2787,0.3882,,0.3879,0.4076,1.9939,,0.8188,0.5002,0.4539,16.883,17.1361,17.7679,86.712,,22.8782,20.3231,0.0335,,,,-99.0,,-99.0,-99.0,26.9176,,26.9186,,0.6703,84.5706,,7.565,,1.9043E+00,,1.0000E-12,,6.4943,6.4943,0.8518,,5.663,29.084,,,,,,,,,,,,
CalCOFI,2007SR,066,68,2007_066u,26-Jul-2020 08:23:32,26-Jul-2020 00:23:32,34.88934,-121.19896,076.7 055.0,076.7,055.0,487.000,491.119,,6.5439,,6.5440,,6.5440,34.2769,,34.2771,34.2782,,34.2798,34.2785,0.3971,,0.3972,0.4168,1.9909,,0.8117,0.4926,0.4547,17.269,17.5390,18.1695,86.584,,22.5540,20.3618,0.0336,,,,-99.0,,-99.0,-99.0,26.9167,,26.9177,,0.6690,84.5983,,7.565,,1.9043E+00,,1.0000E-12,,6.4992,6.4992,0.8518,,5.793,29.044,,,,,,,,,,,,
CalCOFI,2007SR,066,68,2007_066u,26-Jul-2020 08:23:33,26-Jul-2020 00:23:33,34.88934,-121.19896,076.7 055.0,076.7,055.0,486.000,490.110,,6.5514,,6.5521,,6.5518,34.2767,,34.2769,34.2781,,34.2797,34.2783,0.4049,,0.4054,0.4249,1.9906,,0.8110,0.4918,0.4584,17.607,17.8918,18.5212,86.571,,22.5211,20.5212,0.0342,,,,-99.0,,-99.0,-99.0,26.9155,,26.9165,,0.6660,84.6626,,7.565,,1.9043E+00,,1.0000E-12,,6.5067,6.5074,0.8518,,5.907,29.045,,,,,,,,,,,,
CalCOFI,2007SR,066,68,2007_066u,26-Jul-2020 08:23:34,26-Jul-2020 00:23:34,34.88934,-121.19896,076.7 055.0,076.7,055.0,485.000,489.100,,6.5663,,6.5675,,6.5669,34.2760,,34.2762,34.2773,,34.2789,34.2776,0.4062,,0.4067,0.4263,1.9936,,0.8181,0.4994,0.4629,17.664,17.9513,18.5805,86.701,,22.8503,20.7154,0.0332,,,,-99.0,,-99.0,-99.0,26.9130,,26.9139,,0.6633,84.7199,,7.565,,1.9043E+00,,1.0000E-12,,6.5217,6.5229,0.8518,,5.928,29.099,,,,,,,,,,,,
CalCOFI,2007SR,066,68,2007_066u,26-Jul-2020 08:23:35,26-Jul-2020 00:23:35,34.88934,-121.19896,076.7 055.0,076.7,055.0,484.000,488.090,,6.5796,,6.5791,,6.5794,34.2749,,34.2751,34.2764,,34.2780,34.2766,0.4081,,0.4087,0.4283,1.9884,,0.8057,0.4862,0.4573,17.747,18.0380,18.6669,86.474,,22.2754,20.4712,0.0339,,,,-99.0,,-99.0,-99.0,26.9104,,26.9116,,0.6611,84.7672,,7.565,,1.9043E+00,,1.0000E-12,,6.5350,6.5345,0.8518,,5.958,29.031,,,,,,,,,,,,
CalCOFI,2007SR,066,68,2007_066u,26-Jul-2020 08:23:36,26-Jul-2020 00:23:36,34.88934,-121.19896,076.7 055.0,076.7,055.0,483.000,487.081,,6.5830,,6.5832,,6.5831,34.2744,,34.2746,34.2757,,34.2773,34.2760,0.4113,,0.4121,0.4316,1.9884,,0.8057,0.4862,0.4589,17.889,18.1862,18.8146,86.474,,22.2754,20.5450,0.0325,,,,-99.0,,-99.0,-99.0,26.9096,,26.9106,,0.6590,84.8101,,7.565,,1.9043E+00,,1.0000E-12,,6.5385,6.5387,0.8518,,6.006,29.033,,,,,,,,,,,,
CalCOFI,2007SR,066,68,2007_066u,26-Jul-2020 08:23:37,26-Jul-2020 00:23:37,34.88934,-121.19896,076.7 055.0,076.7,055.0,482.000,486.071,,6.5927,,6.5938,,6.5933,34.2739,,34.2741,34.2753,,34.2769,34.2755,0.4142,,0.4151,0.4346,1.9871,,0.8026,0.4829,0.4588,18.014,18.3167,18.9447,86.420,,22.1386,20.5417,0.0338,,,,-99.0,,-99.0,-99.0,26.9079,,26.9088,,0.6572,84.8474,,7.565,,1.9043E+00,,1.0000E-12,,6.5483,6.5494,0.8518,,6.049,29.022,,,,,,,,,,,,
CalCOFI,2007SR,066,68,2007_066u,26-Jul-2020 08:23:38,26-Jul-2020 00:23:38,34.88934,-121.19896,076.7 055.0,076.7,055.0,481.000,485.062,,6.6015,,6.6016,,6.6016,34.2734,,34.2736,34.2748,,34.2764,34.2750,0.4174,,0.4184,0.4379,1.9847,,0.7969,0.4769,0.4574,18.154,18.4629,19.0903,86.315,,21.8727,20.4815,0.0334,,,,-99.0,,-99.0,-99.0,26.9062,,26.9073,,0.6577,84.8372,,7.565,,1.9043E+00,,1.0000E-12,,6.5572,6.5572,0.8518,,6.098,28.992,,,,,,,,,,,,
CalCOFI,2007SR,066,68,2007_066u,26-Jul-2020 08:23:39,26-Jul-2020 00:23:39,34.88934,-121.19896,076.7 055.0,076.7,055.0,480.000,484.052,,6.6160,,6.6171,,6.6166,34.2729,,34.2731,34.2743,,34.2759,34.2745,0.4189,,0.4200,0.4395,1.9946,,0.8205,0.5019,0.4707,18.219,18.5307,19.1580,86.744,,22.9592,21.0586,0.0334,,,,-99.0,,-99.0,-99.0,26.9040,,26.9049,,0.6575,84.8425,,7.565,,1.9043E+00,,1.0000E-12,,6.5717,6.5728,0.8518,,6.121,29.146,,,,,,,,,,,,
CalCOFI,2007SR,066,68,2007_066u,26-Jul-2020 08:23:40,26-Jul-2020 00:23:40,34.88934,-121.19896,076.7 055.0,076.7,055.0,479.000,483.042,,6.6264,,6.6278,,6.6271,34.2727,,34.2729,34.2741,,34.2757,34.2743,0.4211,,0.4223,0.4417,1.9872,,0.8028,0.4832,0.4625,18.312,18.6278,19.2547,86.424,,22.1488,20.7018,0.0338,,,,-99.0,,-99.0,-99.0,26.9024,,26.9033,,0.6570,84.8520,,7.568,,1.9043E+00,,1.0000E-12,,6.5821,6.5835,0.8518,,6.154,29.046,,,,,,,,,,,,
CalCOFI,2007SR,066,68,2007_066u,26-Jul-2020 08:23:41,26-Jul-2020 00:23:41,34.88935,-121.19896,076.7 055.0,076.7,055.0,478.000,482.033,,6.6361,,6.6365,,6.6363,34.2725,,34.2727,34.2738,,34.2754,34.2741,0.4222,,0.4235,0.4429,1.9879,,0.8045,0.4850,0.4640,18.362,18.6800,19.3068,86.456,,22.2298,20.7683,0.0331,,,,-99.0,,-99.0,-99.0,26.9009,,26.9020,,0.6573,84.8452,,7.568,,1.9043E+00,,1.0000E-12,,6.5919,6.5922,0.8518,,6.172,29.062,,,,,,,,,,,,
CalCOFI,2007SR,066,68,2007_066u,26-Jul-2020 08:23:42,26-Jul-2020 00:23:42,34.88934,-121.19896,076.7 055.0,076.7,055.0,477.000,481.023,,6.6390,,6.6394,,6.6392,34.2725,,34.2727,34.2737,,34.2753,34.2740,0.4254,,0.4268,0.4462,1.9895,,0.8083,0.4890,0.4676,18.499,18.8230,19.4493,86.522,,22.3970,20.9232,0.0335,,,,-99.0,,-99.0,-99.0,26.9005,,26.9014,,0.6559,84.8751,,7.568,,1.9043E+00,,1.0000E-12,,6.5949,6.5953,0.8518,,6.219,29.086,,,,,,,,,,,,
CalCOFI,2007SR,066,68,2007_066u,26-Jul-2020 08:23:43,26-Jul-2020 00:23:43,34.88934,-121.19896,076.7 055.0,076.7,055.0,476.000,480.014,,6.6420,,6.6420,,6.6420,34.2725,,34.2727,34.2737,,34.2753,34.2740,0.4280,,0.4295,0.4489,1.9862,,0.8005,0.4807,0.4648,18.612,18.9410,19.5669,86.380,,22.0373,20.8021,0.0323,,,,-99.0,,-99.0,-99.0,26.9002,,26.9011,,0.6546,84.9032,,7.569,,1.9043E+00,,1.0000E-12,,6.5980,6.5979,0.8518,,6.257,29.040,,,,,,,,,,,,
CalCOFI,2007SR,066,68,2007_066u,26-Jul-2020 08:23:44,26-Jul-2020 00:23:44,34.88934,-121.19896,076.7 055.0,076.7,055.0,475.000,479.004,,6.6462,,6.6462,,6.6462,34.2727,,34.2729,34.2738,,34.2754,34.2742,0.4332,,0.4350,0.4543,1.9856,,0.7990,0.4791,0.4667,18.839,19.1779,19.8031,86.355,,21.9740,20.8886,0.0317,,,,-99.0,,-99.0,-99.0,26.8997,,26.9006,,0.6535,84.9272,,7.569,,1.9043E+00,,1.0000E-12,,6.6022,6.6022,0.8518,,6.334,29.035,,,,,,,,,,,,
CalCOFI,2007SR,066,68,2007_066u,26-Jul-2020 08:23:45,26-Jul-2020 00:23:45,34.88934,-121.19896,076.7 055.0,076.7,055.0,474.000,477.994,,6.6568,,6.6588,,6.6578,34.2730,,34.2732,34.2747,,34.2763,34.2748,0.4358,,0.4377,0.4570,1.9874,,0.8033,0.4837,0.4704,18.951,19.2948,19.9196,86.434,,22.1741,21.0469,0.0328,,,,-99.0,,-99.0,-99.0,26.8985,,26.8996,,0.6518,84.9631,,7.570,,1.9043E+00,,1.0000E-12,,6.6129,6.6149,0.8518,,6.374,29.070,,,,,,,,,,,,
CalCOFI,2007SR,066,68,2007_066u,26-Jul-2020 08:23:46,26-Jul-2020 00:23:46,34.88934,-121.19896,076.7 055.0,076.7,055.0,473.000,476.985,,6.6810,,6.6792,,6.6801,34.2735,,34.2737,34.2750,,34.2766,34.2752,0.4395,,0.4415,0.4608,1.9846,,0.7966,0.4766,0.4687,19.111,19.4619,20.0861,86.312,,21.8651,20.9756,0.0333,,,,-99.0,,-99.0,-99.0,26.8957,,26.8971,,0.6503,84.9959,,7.570,,1.9043E+00,,1.0000E-12,,6.6371,6.6353,0.8518,,6.431,29.042,,,,,,,,,,,,
CalCOFI,2007SR,066,68,2007_066u,26-Jul-2020 08:23:47,26-Jul-2020 00:23:47,34.88936,-121.19896,076.7 055.0,076.7,055.0,472.000,475.975,,6.6884,,6.6887,,6.6886,34.2719,,34.2721,34.2731,,34.2747,34.2734,0.4469,,0.4493,0.4685,1.9839,,0.7950,0.4748,0.4717,19.434,19.7991,20.4221,86.280,,21.7841,21.1031,0.0328,,,,-99.0,,-99.0,-99.0,26.8934,,26.8943,,0.6525,84.9485,,7.570,,1.9043E+00,,1.0000E-12,,6.6445,6.6449,0.8518,,6.541,29.038,,,,,,,,,,,,
CalCOFI,2007SR,066,68,2007_066u,26-Jul-2020 08:23:49,26-Jul-2020 00:23:49,34.88935,-121.19896,076.7 055.0,076.7,055.0,471.000,474.966,,6.6856,,6.6849,,6.6853,34.2690,,34.2692,34.2693,,34.2709,34.2701,0.4526,,0.4552,0.4744,1.9839,,0.7950,0.4748,0.4746,19.683,20.0590,20.6812,86.280,,21.7841,21.2327,0.0324,,,,-99.0,,-99.0,-99.0,26.8915,,26.8918,,0.6470,85.0656,,7.570,,1.9043E+00,,1.0000E-12,,6.6418,6.6412,0.8518,,6.624,29.034,,,,,,,,,,,,
CalCOFI,2007SR,066,68,2007_066u,26-Jul-2020 08:23:50,26-Jul-2020 00:23:50,34.88934,-121.19896,076.7 055.0,076.7,055.0,470.000,473.956,,6.6826,,6.6826,,6.6826,34.2667,,34.2669,34.2678,,34.2694,34.2682,0.4555,,0.4583,0.4775,1.9859,,0.7997,0.4799,0.4787,19.808,20.1895,20.8113,86.367,,22.0044,21.4079,0.0330,,,,-99.0,,-99.0,-99.0,26.8900,,26.8910,,0.6461,85.0843,,7.570,,1.9043E+00,,1.0000E-12,,6.6390,6.6390,0.8518,,6.665,29.062,,,,,,,,,,,,
CalCOFI,2007SR,066,68,2007_066u,26-Jul-2020 08:23:50,26-Jul-2020 00:23:50,34.88934,-121.19896,076.7 055.0,076.7,055.0,469.000,472.947,,6.6879,,6.6880,,6.6880,34.2661,,34.2663,34.2675,,34.2691,34.2677,0.4578,,0.4607,0.4798,1.9899,,0.8093,0.4900,0.4849,19.912,20.2980,20.9195,86.542,,22.4476,21.6836,0.0334,,,,-99.0,,-99.0,-99.0,26.8889,,26.8900,,0.6457,85.0930,,7.570,,1.9043E+00,,1.0000E-12,,6.6443,6.6444,0.8518,,6.701,29.124,,,,,,,,,,,,
CalCOFI,2007SR,066,68,2007_066u,26-Jul-2020 08:23:51,26-Jul-2020 00:23:51,34.88934,-121.19896,076.7 055.0,076.7,055.0,468.000,471.937,,6.6937,,6.6937,,6.6937,34.2657,,34.2659,34.2668,,34.2684,34.2672,0.4586,,0.4615,0.4807,1.9916,,0.8133,0.4943,0.4875,19.942,20.3294,20.9507,86.615,,22.6325,21.7916,0.0324,,,,-99.0,,-99.0,-99.0,26.8877,,26.8887,,0.6456,85.0948,,7.570,,1.9043E+00,,1.0000E-12,,6.6502,6.6502,0.8518,,6.712,29.152,,,,,,,,,,,,
CalCOFI,2007SR,066,68,2007_066u,26-Jul-2020 08:23:52,26-Jul-2020 00:23:52,34.88934,-121.19896,076.7 055.0,076.7,055.0,467.000,470.927,,6.7020,,6.7019,,6.7020,34.2660,,34.2662,34.2672,,34.2688,34.2675,0.4561,,0.4589,0.4781,1.9892,,0.8076,0.4883,0.4832,19.837,20.2197,20.8414,86.513,,22.3742,21.6078,0.0330,,,,-99.0,,-99.0,-99.0,26.8869,,26.8879,,0.6462,85.0817,,7.570,,1.9043E+00,,1.0000E-12,,6.6586,6.6585,0.8518,,6.678,29.123,,,,,,,,,,,,
CalCOFI,2007SR,066,68,2007_066u,26-Jul-2020 08:23:53,26-Jul-2020 00:23:53,34.88934,-121.19896,076.7 055.0,076.7,055.0,466.000,469.918,,6.7099,,6.7102,,6.7101,34.2660,,34.2662,34.2673,,34.2689,34.2676,0.4574,,0.4602,0.4794,1.9864,,0.8009,0.4812,0.4803,19.893,20.2782,20.8997,86.391,,22.0652,21.4825,0.0325,,,,-99.0,,-99.0,-99.0,26.8858,,26.8868,,0.6474,85.0565,,7.572,,1.9043E+00,,1.0000E-12,,6.6665,6.6669,0.8518,,6.698,29.088,,,,,,,,,,,,
CalCOFI,2007SR,066,68,2007_066u,26-Jul-2020 08:23:54,26-Jul-2020 00:23:54,34.88936,-121.19896,076.7 055.0,076.7,055.0,465.000,468.908,,6.7120,,6.7125,,6.7123,34.2657,,34.2659,34.2670,,34.2686,34.2673,0.4578,,0.4607,0.4798,1.9858,,0.7995,0.4797,0.4798,19.910,20.2959,20.9174,86.366,,22.0019,21.4597,0.0320,,,,-99.0,,-99.0,-99.0,26.8853,,26.8863,,0.6458,85.0910,,7.572,,1.9043E+00,,1.0000E-12,,6.6687,6.6693,0.8518,,6.704,29.081,,,,,,,,,,,,